Dewpoint
42 42 42 42 43 42 41 34 30 41 43 31 33 27 21 19 17 17 26 29 26 25 29 30 31 30 34 35 35 34 35 34 30 32 35 36 36 34 33 30 28 32 30 31
41 41 42 41 41 42 39 35 30 38 40 26 26 24 21 22 21 20 17 21 26 31 29 27 27 32 33 36 33 33 34 32 28 27 31 33 32 34 35 33 32 30 29 31
42 42 42 42 42 41 41 34 29 30 35 28 27 23 20 18 21 27 24 20 20 23 23 25 26 24 32 32 27 32 33 32 29 25 25 28 28 29 33 32 29 29 30 31
42 43 43 43 43 41 41 35 29 26 26 28 28 26 24 20 17 22 25 28 23 25 21 19 16 23 19 20 25 30 31 26 24 23 18 19 21 18 22 28 28 28 26 27
41 41 41 42 42 41 40 34 30 29 24 23 23 24 23 20 18 21 20 24 24 28 25 19 20 20 20 19 21 22 24 24 21 19 14 13 14 15 16 15 17 23 24 23
41 42 42 42 42 42 38 38 36 33 26 22 23 21 20 17 23 23 21 22 24 24 21 20 22 23 24 24 23 23 23 22 20 13 14 16 17 22 14 10 13 15 15 17
42 42 42 42 42 42 42 39 37 32 25 24 21 19 20 19 20 25 23 23 21 19 23 23 21 21 20 21 22 24 26 24 21 16 12 11 10 16 16 15 14 15 16 18
42 42 42 43 42 42 44 42 36 33 28 22 23 23 24 23 22 23 24 24 25 27 26 23 18 16 17 16 18 18 22 24 21 17 11 8 7 8 14 14 10 12 13 15
42 43 43 43 41 42 43 42 41 35 32 27 27 27 28 25 22 21 23 26 27 27 25 23 16 8 5 5 16 25 21 24 24 19 14 6 13 17 19 17 7 17 17 14
42 42 42 42 42 41 41 40 42 37 32 26 28 26 25 26 24 24 24 23 27 30 25 21 16 13 12 9 8 12 23 25 23 20 18 14 18 18 21 13 19 22 21 20
41 41 42 42 42 41 39 38 42 38 34 29 31 29 27 29 27 24 29 28 28 28 24 22 20 19 18 17 14 17 21 22 21 21 20 14 22 21 17 25 23 24 23 24
41 41 41 42 42 41 38 38 41 41 35 31 35 34 33 32 31 30 32 29 31 31 28 29 28 22 23 19 15 23 19 21 23 20 22 25 28 27 27 26 27 27 27 26
40 40 40 41 42 41 38 39 40 38 35 32 31 29 31 34 34 35 31 33 33 33 35 32 30 26 23 20 19 20 21 22 22 17 19 20 24 25 25 26 27 28 27 27
40 39 40 40 42 41 37 36 41 39 34 29 27 32 33 35 35 34 34 32 36 35 34 30 26 21 23 22 20 18 19 22 16 16 16 17 20 24 27 27 28 27 25 27
39 39 39 40 41 41 38 37 40 40 35 30 29 31 32 36 36 34 34 33 33 31 30 28 21 20 21 20 19 14 15 13 17 17 22 22 21 28 28 27 26 26 26 26
39 39 39 39 41 40 36 36 36 37 39 33 27 29 29 34 34 34 34 34 32 33 30 25 23 25 24 16 12 14 16 20 21 18 27 27 29 28 26 26 26 26 27 27
39 39 39 39 41 38 35 32 34 38 41 33 26 26 29 31 32 32 35 35 33 34 31 26 24 23 27 21 15 13 15 22 26 27 26 24 23 23 25 25 26 27 26 26
39 39 37 39 41 40 36 37 38 39 35 34 26 24 26 30 31 32 35 34 33 31 29 28 24 23 23 19 14 19 23 24 25 25 25 23 23 23 23 25 24 25 25 25
39 37 37 37 35 37 33 38 39 39 35 30 26 22 24 30 30 33 32 31 28 28 26 23 24 18 19 16 18 16 23 24 24 24 24 23 23 23 23 24 24 24 24 25
37 30 33 34 34 37 37 35 36 35 33 33 24 28 26 29 30 31 27 30 24 20 21 23 21 17 21 27 30 28 26 26 26 25 23 24 24 23 24 24 25 24 27 29
30 33 32 31 35 33 34 31 29 28 25 28 29 28 24 32 27 25 28 27 25 17 19 19 18 21 23 30 32 29 28 26 25 25 26 26 25 25 25 25 26 28 29 30
32 33 35 35 31 29 24 24 23 23 17 25 24 23 23 26 29 28 26 20 21 11 24 23 18 21 28 29 30 28 26 25 24 24 24 25 24 25 26 26 28 28 30 32
33 32 28 25 25 22 18 14 16 22 23 25 24 26 28 26 29 29 25 22 20 23 22 18 22 25 28 30 29 28 27 26 25 24 24 25 24 27 29 28 30 29 29 30
28 23 19 22 20 17 17 15 20 26 25 24 26 27 28 30 29 28 23 22 22 18 16 15 26 28 29 29 30 28 27 27 26 25 25 30 30 30 31 33 32 30 30 30
24 24 19 20 21 23 26 28 26 26 28 28 29 27 27 26 26 24 21 19 16 16 17 28 28 27 28 29 29 28 27 30 28 28 29 31 32 29 31 33 31 29 30 30
26 23 23 24 24 28 29 29 28 28 30 31 28 21 22 21 21 19 17 13 14 22 26 28 28 28 29 30 30 30 30 29 29 28 29 29 31 31 28 32 32 31 32 30
22 24 28 27 25 28 29 28 26 29 28 25 25 21 19 24 21 18 21 20 27 29 28 30 29 28 28 29 31 33 33 31 29 27 28 28 28 26 26 26 28 29 29 33
Lifted_Index
4 3 3 2 2 2 2 2 2 2 2 2 2 3 3 4 4 3 3 3 3 2 2 2 2 2 4 5 4 4 4 3 3 3 3 3 3 2 3 3 2 1 1 1
4 3 2 2 2 2 2 2 1 1 1 2 2 3 3 3 3 3 3 2 2 2 2 2 2 2 3 4 4 4 4 3 3 3 3 3 3 3 4 4 3 2 2 2
3 3 2 2 1 1 1 1 1 1 1 1 1 2 2 2 2 2 2 2 2 1 2 2 2 2 3 4 4 4 3 3 2 2 3 3 4 4 4 4 3 3 3 3
3 2 2 1 1 1 1 1 0 0 0 0 0 1 1 1 1 1 1 1 1 1 1 2 2 3 3 4 4 3 3 2 2 2 2 3 3 4 4 3 3 3 3 4
3 2 2 1 1 1 1 1 0 0 0 0 0 0 0 0 0 0 1 1 1 1 1 2 2 2 3 3 3 3 3 2 2 2 2 3 3 3 3 3 3 3 3 4
3 2 1 1 1 1 1 1 1 0 0 0 0 -0 0 0 0 0 1 1 1 1 1 2 2 2 3 3 3 3 3 3 2 2 2 2 2 2 3 3 3 3 3 3
2 2 1 1 1 1 0 1 1 0 -0 -0 -0 0 0 0 0 0 0 1 1 1 1 1 2 2 2 2 2 2 2 2 2 2 2 2 2 2 3 3 2 3 3 3
3 2 1 1 1 1 0 1 1 0 -0 -0 -0 0 0 -0 -0 -0 -0 0 0 0 1 1 2 2 2 2 2 2 2 2 2 2 2 1 2 2 2 2 2 3 3 3
3 2 2 1 1 1 1 1 1 1 0 -0 -0 -0 -0 -0 -0 -0 -0 -0 -0 0 1 1 1 1 1 1 1 1 1 1 1 1 1 1 1 1 2 2 2 2 2 3
4 3 2 1 1 1 1 1 1 1 1 0 -0 -0 -0 -0 -0 -0 -0 -0 -0 0 0 1 1 1 1 1 1 0 0 1 1 1 0 0 1 1 1 1 2 2 2 2
5 4 3 2 1 2 2 2 2 2 1 1 0 -0 -0 -0 -0 -0 -0 -0 -0 0 0 0 0 0 0 0 0 0 0 0 0 0 0 0 0 1 1 1 1 1 2 2
7 5 4 2 2 2 2 2 2 2 2 1 1 0 -0 -0 -0 -0 -0 -0 0 1 1 0 0 -0 -0 -0 -0 0 0 0 0 0 0 0 0 1 1 1 1 1 1 1
8 7 5 3 2 2 2 2 2 2 2 1 1 0 0 0 0 0 0 0 0 1 1 1 0 0 -0 -0 -0 0 0 0 0 0 0 0 1 1 1 1 1 1 1 2
9 8 7 5 3 2 3 3 2 2 2 1 1 1 0 0 0 1 1 1 1 1 1 1 1 1 0 0 0 0 0 0 0 0 0 1 1 1 1 1 1 2 2 2
10 9 8 6 4 3 3 3 2 2 2 1 1 1 0 -0 0 1 1 1 1 1 1 1 1 1 1 1 1 1 1 1 0 0 1 1 1 1 1 1 2 2 3 3
10 10 9 8 6 4 3 3 2 2 2 1 1 0 0 -0 -0 0 0 0 1 1 0 1 1 1 1 1 0 0 1 1 1 1 1 1 1 1 2 2 3 3 3 3
11 10 10 9 7 5 4 3 3 2 2 1 1 0 -0 -0 -0 -0 -0 -0 0 0 -0 0 0 0 0 0 0 0 0 0 1 1 1 1 2 2 3 3 4 4 3 3
11 11 10 9 8 7 5 4 4 3 2 1 1 0 -0 -0 -0 -0 -0 -0 -0 -0 -0 -0 -0 -0 -0 0 0 0 0 0 1 1 2 2 3 3 4 4 4 4 3 3
11 11 10 9 8 8 7 6 5 3 2 2 1 0 -0 -0 -0 -0 -0 -0 -0 -0 -0 -0 -0 0 0 0 0 0 0 0 1 2 2 3 3 4 4 4 4 4 3 3
11 11 10 9 9 9 8 7 6 4 3 2 1 1 0 -0 -0 -0 -0 0 0 0 0 0 0 0 0 0 0 0 0 1 1 2 2 3 4 4 4 4 4 4 4 3
11 11 10 10 10 9 8 8 7 5 4 3 2 1 1 0 0 -0 0 0 0 1 1 1 1 0 0 0 0 1 1 1 2 2 3 3 4 4 4 4 4 4 4 4
11 11 10 10 9 9 8 8 7 6 5 4 3 2 1 1 1 0 0 0 1 1 1 1 0 0 1 1 1 1 2 2 2 3 4 4 4 5 5 4 4 4 4 4
11 10 9 9 9 8 8 8 7 7 6 5 4 3 2 2 1 1 1 1 1 1 1 0 0 1 1 1 1 1 2 3 3 3 4 4 5 5 5 5 4 4 4 4
11 10 9 8 8 8 8 8 7 7 6 6 6 5 4 3 2 2 1 1 1 1 0 0 0 1 1 1 1 2 2 3 3 3 4 4 5 5 5 5 4 4 4 4
11 10 9 8 8 8 8 7 7 7 7 7 6 6 6 5 4 3 2 2 1 1 1 1 1 1 2 2 2 2 2 2 3 3 4 4 5 5 5 5 5 5 4 4
11 10 9 9 8 8 8 7 7 7 7 7 7 7 6 6 5 4 3 3 2 2 1 2 2 2 2 2 2 2 2 3 3 3 4 4 5 5 5 5 5 5 5 5
10 10 9 9 9 8 7 7 7 7 7 7 7 7 7 6 5 5 4 3 3 3 2 2 2 2 3 3 3 3 3 3 3 3 4 4 4 5 5 5 5 5 5 5